,,PA_Meas_PMT16A,,PR_Meas_QMR101_102,,RH_Meas_QMH101,,SR_Meas_QMS101,,TA_Meas_QMH101,,GenWind,,GenWind,
time,status,PA,status,PR,status,RH,status,SR,status,TA,status,DirAvg,status,SpdAvg,
2017-01-28, 15:42:04,VALID,919.157,VALID,0,VALID,82.6378,VALID,126.673,VALID,20.717,VALID,164,VALID,2.06094,
2017-01-28, 15:43:04,VALID,919.16,VALID,0,VALID,82.249,VALID,128.177,VALID,20.7349,VALID,151,VALID,3.15352,
2017-01-28, 15:44:04,VALID,919.179,VALID,0,VALID,81.1665,VALID,129.467,VALID,20.7755,VALID,159,VALID,3.35313,
2017-01-28, 15:45:04,VALID,919.185,VALID,0,VALID,81.7688,VALID,131.293,VALID,20.7755,VALID,159,VALID,3.22305,
2017-01-28, 15:46:04,VALID,919.231,VALID,0,VALID,81.2885,VALID,133.442,VALID,20.7755,VALID,140,VALID,3.70898,
2017-01-28, 15:47:04,VALID,919.242,VALID,0,VALID,80.7472,VALID,135.268,VALID,20.795,VALID,147,VALID,3.90586,
2017-01-28, 15:48:04,VALID,919.207,VALID,0,VALID,80.8387,VALID,136.987,VALID,20.873,VALID,150,VALID,2.69336,
2017-01-28, 15:49:04,VALID,919.189,VALID,0,VALID,80.7015,VALID,138.599,VALID,20.8925,VALID,158,VALID,2.55117,
2017-01-28, 15:50:04,VALID,919.204,VALID,0,VALID,81.7916,VALID,140.318,VALID,20.8714,VALID,145,VALID,2.2207,
2017-01-28, 15:51:04,VALID,919.21,VALID,0,VALID,82.8132,VALID,142.252,VALID,20.891,VALID,143,VALID,2.44766,
2017-01-28, 15:52:04,VALID,919.236,VALID,0,VALID,81.0522,VALID,144.616,VALID,20.912,VALID,148,VALID,3.63203,
2017-01-28, 15:53:04,VALID,919.266,VALID,0,VALID,81.0217,VALID,147.194,VALID,20.9316,VALID,137,VALID,3.20859,
2017-01-28, 15:54:04,VALID,919.277,VALID,0,VALID,81.0293,VALID,150.203,VALID,20.93,VALID,169,VALID,2.71914,
2017-01-28, 15:55:04,VALID,919.272,VALID,0,VALID,82.1347,VALID,153.319,VALID,20.9511,VALID,150,VALID,2.98516,
2017-01-28, 15:56:04,VALID,919.284,VALID,0,VALID,79.6418,VALID,156.327,VALID,20.9511,VALID,139,VALID,3.13125,
2017-01-28, 15:57:04,VALID,919.267,VALID,0,VALID,79.9239,VALID,159.443,VALID,20.9706,VALID,145,VALID,3.40586,
2017-01-28, 15:58:04,VALID,919.296,VALID,0,VALID,80.8921,VALID,162.558,VALID,20.969,VALID,145,VALID,2.98711,
2017-01-28, 15:59:04,VALID,919.3,VALID,0,VALID,80.3965,VALID,165.889,VALID,20.969,VALID,141,VALID,2.98203,
2017-01-28, 16:00:04,VALID,919.326,VALID,0,VALID,80.9226,VALID,169.112,VALID,21.0291,VALID,154,VALID,3.04102,
2017-01-28, 16:01:04,VALID,919.287,VALID,0,VALID,79.6952,VALID,172.55,VALID,21.0096,VALID,137,VALID,3.73242,
2017-01-28, 16:02:04,VALID,919.35,VALID,0,VALID,81.5477,VALID,176.633,VALID,21.0096,VALID,153,VALID,2.64453,
2017-01-28, 16:03:04,VALID,919.327,VALID,0,VALID,81.5629,VALID,181.038,VALID,21.008,VALID,155,VALID,3.14805,
2017-01-28, 16:04:04,VALID,919.365,VALID,0,VALID,79.0396,VALID,185.443,VALID,21.047,VALID,156,VALID,2.74531,
2017-01-28, 16:05:04,VALID,919.383,VALID,0,VALID,79.6495,VALID,190.386,VALID,21.1055,VALID,150,VALID,3.48242,
2017-01-28, 16:06:04,VALID,919.35,VALID,0,VALID,80.2136,VALID,195.973,VALID,21.086,VALID,143,VALID,3.90937,
2017-01-28, 16:07:04,VALID,919.362,VALID,0,VALID,81.0826,VALID,201.56,VALID,21.0665,VALID,161,VALID,4.35469,
2017-01-28, 16:08:04,VALID,919.358,VALID,0,VALID,81.5019,VALID,206.609,VALID,21.0275,VALID,142,VALID,2.54883,
2017-01-28, 16:09:04,VALID,919.414,VALID,0,VALID,81.2122,VALID,210.047,VALID,21.086,VALID,137,VALID,2.65,
2017-01-28, 16:10:04,VALID,919.416,VALID,0,VALID,81.4867,VALID,212.841,VALID,21.1055,VALID,143,VALID,2.65859,
2017-01-28, 16:11:04,VALID,919.404,VALID,0,VALID,79.3064,VALID,215.42,VALID,21.125,VALID,142,VALID,3.24922,
2017-01-28, 16:12:04,VALID,919.429,VALID,0,VALID,79.4512,VALID,216.816,VALID,21.1657,VALID,151,VALID,4.69258,
2017-01-28, 16:13:04,VALID,919.406,VALID,0,VALID,81.3723,VALID,217.568,VALID,21.1852,VALID,141,VALID,2.66211,
2017-01-28, 16:14:04,VALID,919.462,VALID,0,VALID,81.4486,VALID,218.428,VALID,21.1852,VALID,140,VALID,2.71797,
2017-01-28, 16:15:04,VALID,919.427,VALID,0,VALID,81.3952,VALID,219.825,VALID,21.1852,VALID,135,VALID,3.16484,
2017-01-28, 16:16:04,VALID,919.489,VALID,0,VALID,80.6329,VALID,221.006,VALID,21.1461,VALID,149,VALID,2.83203,
2017-01-28, 16:17:04,VALID,919.531,VALID,0,VALID,81.2351,VALID,223.155,VALID,21.125,VALID,136,VALID,2.2207,
2017-01-28, 16:18:04,VALID,919.506,VALID,0,VALID,81.845,VALID,225.412,VALID,21.1461,VALID,156,VALID,2.91953,
2017-01-28, 16:19:04,VALID,919.561,VALID,0,VALID,80.6405,VALID,227.345,VALID,21.1657,VALID,159,VALID,2.68242,
2017-01-28, 16:20:04,VALID,919.535,VALID,0,VALID,81.6468,VALID,229.172,VALID,21.1657,VALID,139,VALID,3.08008,
2017-01-28, 16:21:04,VALID,919.566,VALID,0,VALID,82.8665,VALID,230.032,VALID,21.086,VALID,156,VALID,2.74023,
2017-01-28, 16:22:04,VALID,919.579,VALID,0,VALID,84.5056,VALID,231.106,VALID,21.0876,VALID,166,VALID,2.20977,
2017-01-28, 16:23:04,VALID,919.553,VALID,0,VALID,83.5603,VALID,232.61,VALID,21.0876,VALID,158,VALID,2.48828,
2017-01-28, 16:24:04,VALID,919.623,VALID,0,VALID,83.9643,VALID,234.759,VALID,21.1071,VALID,140,VALID,2.86289,
2017-01-28, 16:25:04,VALID,919.607,VALID,0,VALID,84.5284,VALID,237.445,VALID,21.1071,VALID,145,VALID,1.74141,
2017-01-28, 16:26:04,VALID,919.622,VALID,0,VALID,84.3226,VALID,241.205,VALID,21.1461,VALID,133,VALID,2.65703,
2017-01-28, 16:27:04,VALID,919.642,VALID,0,VALID,81.9517,VALID,245.825,VALID,21.1071,VALID,144,VALID,2.72813,
2017-01-28, 16:28:04,VALID,919.637,VALID,0,VALID,83.3849,VALID,251.95,VALID,21.1055,VALID,128,VALID,2.94844,
2017-01-28, 16:29:04,VALID,919.612,VALID,0,VALID,83.2629,VALID,258.289,VALID,21.1657,VALID,130,VALID,3.24531,
2017-01-28, 16:30:04,VALID,919.642,VALID,0,VALID,82.2567,VALID,265.272,VALID,21.1852,VALID,135,VALID,2.24141,
2017-01-28, 16:31:04,VALID,919.677,VALID,0,VALID,83.6136,VALID,271.934,VALID,21.2242,VALID,171,VALID,3.07734,
2017-01-28, 16:32:04,VALID,919.651,VALID,0,VALID,81.1208,VALID,280.099,VALID,21.2616,VALID,152,VALID,2.59883,
2017-01-28, 16:33:04,VALID,919.66,VALID,0,VALID,84.0558,VALID,288.587,VALID,21.3396,VALID,142,VALID,2.42734,
2017-01-28, 16:34:04,VALID,919.676,VALID,0,VALID,82.31,VALID,297.827,VALID,21.3981,VALID,160,VALID,2.86836,
2017-01-28, 16:35:04,VALID,919.672,VALID,0,VALID,81.8755,VALID,306.959,VALID,21.3575,VALID,116,VALID,2.65781,
2017-01-28, 16:36:04,VALID,919.658,VALID,0,VALID,81.6544,VALID,314.803,VALID,21.3965,VALID,145,VALID,2.99727,
2017-01-28, 16:37:04,VALID,919.652,VALID,0,VALID,80.8844,VALID,322.109,VALID,21.3965,VALID,137,VALID,2.84609,
2017-01-28, 16:38:04,VALID,919.654,VALID,0,VALID,81.3647,VALID,325.654,VALID,21.416,VALID,141,VALID,2.81133,
2017-01-28, 16:39:04,VALID,919.657,VALID,0,VALID,82.7522,VALID,329.2,VALID,21.4355,VALID,132,VALID,2.38594,
2017-01-28, 16:40:04,VALID,919.667,VALID,0,VALID,83.6289,VALID,333.497,VALID,21.5314,VALID,123,VALID,2.69492,
2017-01-28, 16:41:04,VALID,919.636,VALID,0,VALID,80.2136,VALID,345.853,VALID,21.5526,VALID,129,VALID,3.33164,
2017-01-28, 16:42:04,VALID,919.638,VALID,0,VALID,82.554,VALID,331.241,VALID,21.5932,VALID,133,VALID,2.83008,
2017-01-28, 16:43:04,VALID,919.599,VALID,0,VALID,79.7638,VALID,325.762,VALID,21.5542,VALID,143,VALID,3.37305,
2017-01-28, 16:44:04,VALID,919.627,VALID,0,VALID,83.4459,VALID,320.819,VALID,21.5331,VALID,143,VALID,2.1668,
2017-01-28, 16:45:04,VALID,919.601,VALID,0,VALID,82.9961,VALID,316.414,VALID,21.5721,VALID,163,VALID,2.84531,
2017-01-28, 16:46:04,VALID,919.58,VALID,0,VALID,80.4194,VALID,313.191,VALID,21.4941,VALID,152,VALID,2.72969,
2017-01-28, 16:47:04,VALID,919.572,VALID,0,VALID,83.7585,VALID,311.794,VALID,21.5331,VALID,136,VALID,2.65,
2017-01-28, 16:48:04,VALID,919.594,VALID,0,VALID,82.6683,VALID,311.15,VALID,21.6128,VALID,142,VALID,2.79141,
2017-01-28, 16:49:04,VALID,919.579,VALID,0,VALID,80.1374,VALID,311.257,VALID,21.5331,VALID,144,VALID,2.8625,
2017-01-28, 16:50:04,VALID,919.572,VALID,0,VALID,83.8652,VALID,312.009,VALID,21.5526,VALID,137,VALID,2.89219,
2017-01-28, 16:51:04,VALID,919.551,VALID,0,VALID,80.6481,VALID,312.331,VALID,21.5526,VALID,141,VALID,2.63281,
2017-01-28, 16:52:04,VALID,919.564,VALID,0,VALID,82.8208,VALID,314.158,VALID,21.5916,VALID,138,VALID,2.23359,
2017-01-28, 16:53:04,VALID,919.547,VALID,0,VALID,81.5019,VALID,316.199,VALID,21.5526,VALID,156,VALID,3.20781,
2017-01-28, 16:54:04,VALID,919.558,VALID,0,VALID,82.6226,VALID,319.1,VALID,21.5721,VALID,149,VALID,2.73008,
2017-01-28, 16:55:04,VALID,919.583,VALID,0,VALID,81.3876,VALID,323.828,VALID,21.6111,VALID,140,VALID,3.0457,
2017-01-28, 16:56:04,VALID,919.578,VALID,0,VALID,79.1844,VALID,330.167,VALID,21.5721,VALID,155,VALID,3.21719,
2017-01-28, 16:57:04,VALID,919.572,VALID,0,VALID,82.5387,VALID,337.795,VALID,21.6501,VALID,141,VALID,2.73633,
2017-01-28, 16:58:04,VALID,919.557,VALID,0,VALID,81.9975,VALID,346.498,VALID,21.7282,VALID,149,VALID,1.95391,
2017-01-28, 16:59:04,VALID,919.553,VALID,0,VALID,80.5109,VALID,356.49,VALID,21.7282,VALID,162,VALID,3.79609,
2017-01-28, 17:00:04,VALID,919.518,VALID,0,VALID,81.1513,VALID,367.556,VALID,21.785,VALID,174,VALID,1.94922,
2017-01-28, 17:01:04,VALID,919.528,VALID,0,VALID,79.8248,VALID,380.986,VALID,21.8062,VALID,153,VALID,1.24609,
2017-01-28, 17:02:04,VALID,919.566,VALID,0,VALID,82.3863,VALID,395.061,VALID,21.9216,VALID,199,VALID,0,
2017-01-28, 17:03:04,VALID,919.54,VALID,0,VALID,78.7499,VALID,402.689,VALID,22.0598,VALID,190,VALID,1.68906,
2017-01-28, 17:04:04,VALID,919.568,VALID,0,VALID,78.7804,VALID,425.145,VALID,22.1769,VALID,168,VALID,1.97148,
2017-01-28, 17:05:04,VALID,919.573,VALID,0,VALID,80.0001,VALID,470.7,VALID,22.1964,VALID,178,VALID,1.34609,
2017-01-28, 17:06:04,VALID,919.584,VALID,0,VALID,79.8858,VALID,523.238,VALID,22.3525,VALID,129,VALID,0.362109,
2017-01-28, 17:07:04,VALID,919.56,VALID,0,VALID,80.8921,VALID,496.163,VALID,22.6062,VALID,148,VALID,0.530078,
2017-01-28, 17:08:04,VALID,919.541,VALID,0,VALID,77.4615,VALID,460.6,VALID,22.7641,VALID,124,VALID,1.25781,
2017-01-28, 17:09:04,VALID,919.588,VALID,0,VALID,77.9647,VALID,439.005,VALID,22.9202,VALID,155,VALID,1.02148,
2017-01-28, 17:10:04,VALID,919.585,VALID,0,VALID,75.2965,VALID,437.715,VALID,22.9753,VALID,185,VALID,1.36406,
2017-01-28, 17:11:04,VALID,919.564,VALID,0,VALID,74.2978,VALID,438.467,VALID,23.0551,VALID,185,VALID,2.58555,
2017-01-28, 17:12:04,VALID,919.547,VALID,0,VALID,74.9229,VALID,421.062,VALID,22.9965,VALID,160,VALID,2.2043,
2017-01-28, 17:13:04,VALID,919.562,VALID,0,VALID,77.2938,VALID,418.054,VALID,23.0356,VALID,160,VALID,2.02734,
2017-01-28, 17:14:04,VALID,919.566,VALID,0,VALID,75.4337,VALID,403.442,VALID,23.0338,VALID,113,VALID,1.38555,
2017-01-28, 17:15:04,VALID,919.54,VALID,0,VALID,75.6777,VALID,384.747,VALID,23.016,VALID,123,VALID,2.37109,
2017-01-28, 17:16:04,VALID,919.557,VALID,0,VALID,75.4794,VALID,370.457,VALID,22.977,VALID,135,VALID,3.80039,
2017-01-28, 17:17:04,VALID,919.554,VALID,0,VALID,75.0525,VALID,366.052,VALID,22.8014,VALID,146,VALID,3.33125,
2017-01-28, 17:18:04,VALID,919.551,VALID,0,VALID,76.4705,VALID,366.159,VALID,22.7233,VALID,127,VALID,3.08437,
2017-01-28, 17:19:04,VALID,919.571,VALID,0,VALID,77.7588,VALID,372.284,VALID,22.7233,VALID,144,VALID,2.27539,
2017-01-28, 17:20:04,VALID,919.584,VALID,0,VALID,76.7297,VALID,377.548,VALID,22.7233,VALID,128,VALID,3.61133,
2017-01-28, 17:21:04,VALID,919.572,VALID,0,VALID,77.0499,VALID,379.59,VALID,22.6045,VALID,165,VALID,3.64063,
2017-01-28, 17:22:04,VALID,919.563,VALID,0,VALID,76.8821,VALID,381.309,VALID,22.624,VALID,121,VALID,2.88203,
2017-01-28, 17:23:04,VALID,919.586,VALID,0,VALID,74.9763,VALID,376.474,VALID,22.6045,VALID,146,VALID,2.76523,
2017-01-28, 17:24:04,VALID,919.529,VALID,0,VALID,78.7651,VALID,370.672,VALID,22.6062,VALID,135,VALID,2.52344,
2017-01-28, 17:25:04,VALID,919.521,VALID,0,VALID,75.9292,VALID,365.192,VALID,22.5281,VALID,126,VALID,2.69766,
2017-01-28, 17:26:04,VALID,919.563,VALID,0,VALID,77.1032,VALID,360.358,VALID,22.4679,VALID,154,VALID,2.29922,
2017-01-28, 17:27:04,VALID,919.511,VALID,0,VALID,77.37,VALID,358.639,VALID,22.585,VALID,138,VALID,3.05938,
2017-01-28, 17:28:04,VALID,919.527,VALID,0,VALID,79.1387,VALID,357.242,VALID,22.6435,VALID,148,VALID,2.97734,
2017-01-28, 17:29:04,VALID,919.508,VALID,0,VALID,75.4947,VALID,354.126,VALID,22.6418,VALID,152,VALID,2.70742,
2017-01-28, 17:30:04,VALID,919.499,VALID,0,VALID,76.3714,VALID,349.936,VALID,22.585,VALID,152,VALID,3.26797,
2017-01-28, 17:31:04,VALID,919.5,VALID,0,VALID,77.9266,VALID,344.241,VALID,22.585,VALID,140,VALID,2.40313,
2017-01-28, 17:32:04,VALID,919.505,VALID,0,VALID,76.501,VALID,337.043,VALID,22.5655,VALID,150,VALID,2.89219,
2017-01-28, 17:33:04,VALID,919.468,VALID,0,VALID,78.5441,VALID,329.307,VALID,22.585,VALID,139,VALID,2.34141,
2017-01-28, 17:34:04,VALID,919.455,VALID,0,VALID,77.8122,VALID,322.109,VALID,22.6435,VALID,117,VALID,2.90703,
2017-01-28, 17:35:04,VALID,919.429,VALID,0,VALID,77.7893,VALID,316.737,VALID,22.624,VALID,110,VALID,2.94414,
2017-01-28, 17:36:04,VALID,919.442,VALID,0,VALID,80.2136,VALID,313.191,VALID,22.6435,VALID,149,VALID,2.06094,
2017-01-28, 17:37:04,VALID,919.414,VALID,0,VALID,75.5785,VALID,311.794,VALID,22.6825,VALID,130,VALID,2.8793,
2017-01-28, 17:38:04,VALID,919.4,VALID,0,VALID,77.8275,VALID,311.364,VALID,22.7003,VALID,115,VALID,2.6582,
2017-01-28, 17:39:04,VALID,919.387,VALID,0,VALID,79.1844,VALID,312.546,VALID,22.7198,VALID,143,VALID,2.30547,
2017-01-28, 17:40:04,VALID,919.351,VALID,0,VALID,77.0422,VALID,314.48,VALID,22.6613,VALID,138,VALID,2.69609,
2017-01-28, 17:41:04,VALID,919.344,VALID,0,VALID,79.4284,VALID,316.092,VALID,22.6613,VALID,139,VALID,2.32617,
2017-01-28, 17:42:04,VALID,919.334,VALID,0,VALID,75.4871,VALID,317.918,VALID,22.7216,VALID,163,VALID,3.43438,
2017-01-28, 17:43:04,VALID,919.285,VALID,0,VALID,76.3561,VALID,321.142,VALID,22.6418,VALID,154,VALID,2.66914,
2017-01-28, 17:44:04,VALID,919.302,VALID,0,VALID,78.4983,VALID,325.117,VALID,22.6418,VALID,151,VALID,2.68477,
2017-01-28, 17:45:04,VALID,919.246,VALID,0,VALID,77.3396,VALID,329.952,VALID,22.6418,VALID,154,VALID,4.16992,
2017-01-28, 17:46:04,VALID,919.234,VALID,0,VALID,75.7996,VALID,335.216,VALID,22.6223,VALID,154,VALID,3.12383,
2017-01-28, 17:47:04,VALID,919.21,VALID,0,VALID,74.8543,VALID,341.341,VALID,22.663,VALID,141,VALID,3.94805,
2017-01-28, 17:48:04,VALID,919.196,VALID,0,VALID,74.9077,VALID,348.109,VALID,22.624,VALID,145,VALID,3.5125,
2017-01-28, 17:49:04,VALID,919.18,VALID,0,VALID,74.0691,VALID,356.705,VALID,22.6045,VALID,117,VALID,3.35234,
2017-01-28, 17:50:04,VALID,919.098,VALID,0,VALID,75.792,VALID,366.052,VALID,22.6045,VALID,87,VALID,3.83164,
2017-01-28, 17:51:04,VALID,919.132,VALID,0,VALID,78.3382,VALID,375.507,VALID,22.5637,VALID,88,VALID,2.71523,
2017-01-28, 17:52:04,VALID,919.083,VALID,0,VALID,79.3369,VALID,383.672,VALID,22.7198,VALID,126,VALID,1.97852,
2017-01-28, 17:53:04,VALID,919.103,VALID,0,VALID,79.5351,VALID,392.697,VALID,22.8955,VALID,129,VALID,1.72344,
2017-01-28, 17:54:04,VALID,919.066,VALID,0,VALID,76.5848,VALID,403.334,VALID,23.0143,VALID,147,VALID,1.65078,
2017-01-28, 17:55:04,VALID,919.07,VALID,0,VALID,78.4602,VALID,412.144,VALID,23.1296,VALID,145,VALID,1.55586,
2017-01-28, 17:56:04,VALID,919.069,VALID,0,VALID,76.7907,VALID,417.516,VALID,23.2857,VALID,124,VALID,1.225,
2017-01-28, 17:57:04,VALID,919.064,VALID,0,VALID,74.7171,VALID,422.673,VALID,23.3656,VALID,161,VALID,2.65313,
2017-01-28, 17:58:04,VALID,919.019,VALID,0,VALID,72.9485,VALID,429.442,VALID,23.3283,VALID,153,VALID,3.24531,
2017-01-28, 17:59:04,VALID,919.014,VALID,0,VALID,75.0754,VALID,438.36,VALID,23.1917,VALID,129,VALID,4.1043,
2017-01-28, 18:00:04,VALID,919.009,VALID,0,VALID,72.5139,VALID,451.145,VALID,23.0533,VALID,116,VALID,3.07266,
2017-01-28, 18:01:04,VALID,919.025,VALID,0,VALID,76.6077,VALID,460.923,VALID,23.1119,VALID,146,VALID,2.19766,
2017-01-28, 18:02:04,VALID,919.038,VALID,0,VALID,75.1669,VALID,475.642,VALID,23.2112,VALID,144,VALID,3.30508,
2017-01-28, 18:03:04,VALID,918.977,VALID,0,VALID,74.4198,VALID,480.047,VALID,23.1704,VALID,120,VALID,3.64219,
2017-01-28, 18:04:04,VALID,918.993,VALID,0,VALID,74.4122,VALID,463.179,VALID,23.2094,VALID,115,VALID,2.7543,
2017-01-28, 18:05:04,VALID,919.009,VALID,0,VALID,72.8646,VALID,466.295,VALID,23.1314,VALID,151,VALID,2.47344,
2017-01-28, 18:06:04,VALID,918.976,VALID,0,VALID,75.8377,VALID,472.526,VALID,23.1314,VALID,105,VALID,1.29609,
2017-01-28, 18:07:04,VALID,918.947,VALID,0,VALID,73.7413,VALID,490.147,VALID,23.2485,VALID,147,VALID,4.71484,
2017-01-28, 18:08:04,VALID,918.922,VALID,0,VALID,74.1453,VALID,489.717,VALID,23.3461,VALID,108,VALID,1.86563,
2017-01-28, 18:09:04,VALID,918.891,VALID,0,VALID,75.3498,VALID,490.469,VALID,23.5022,VALID,117,VALID,3.12031,
2017-01-28, 18:10:04,VALID,918.905,VALID,0,VALID,73.1772,VALID,497.238,VALID,23.5022,VALID,122,VALID,1.77852,
2017-01-28, 18:11:04,VALID,918.912,VALID,0,VALID,70.9816,VALID,499.494,VALID,23.5022,VALID,147,VALID,1.80664,
2017-01-28, 18:12:04,VALID,918.886,VALID,0,VALID,72.5368,VALID,507.23,VALID,23.5199,VALID,140,VALID,0.761719,
2017-01-28, 18:13:04,VALID,918.883,VALID,0,VALID,72.148,VALID,510.131,VALID,23.756,VALID,167,VALID,0,
2017-01-28, 18:14:04,VALID,918.882,VALID,0,VALID,70.4861,VALID,511.527,VALID,23.8926,VALID,159,VALID,1.75781,
2017-01-28, 18:15:04,VALID,918.868,VALID,0,VALID,69.1291,VALID,506.478,VALID,23.834,VALID,128,VALID,1.12969,
2017-01-28, 18:16:04,VALID,918.846,VALID,0,VALID,69.3883,VALID,504.866,VALID,23.8145,VALID,120,VALID,1.98047,
2017-01-28, 18:17:04,VALID,918.855,VALID,0,VALID,72.1175,VALID,539.569,VALID,23.7737,VALID,151,VALID,2.68672,
2017-01-28, 18:18:04,VALID,918.877,VALID,0,VALID,71.0045,VALID,527.858,VALID,23.7151,VALID,121,VALID,2.58398,
2017-01-28, 18:19:04,VALID,918.89,VALID,0,VALID,73.1009,VALID,454.906,VALID,23.6175,VALID,140,VALID,1.44414,
2017-01-28, 18:20:04,VALID,918.822,VALID,0,VALID,73.3678,VALID,436.211,VALID,23.7151,VALID,162,VALID,1.97422,
2017-01-28, 18:21:04,VALID,918.805,VALID,0,VALID,70.3031,VALID,427.079,VALID,23.8517,VALID,167,VALID,1.57187,
2017-01-28, 18:22:04,VALID,918.79,VALID,0,VALID,71.5915,VALID,421.921,VALID,23.8908,VALID,113,VALID,2.33828,
2017-01-28, 18:23:04,VALID,918.775,VALID,0,VALID,70.8139,VALID,420.74,VALID,23.8127,VALID,99,VALID,1.75156,
2017-01-28, 18:24:04,VALID,918.734,VALID,0,VALID,72.3843,VALID,421.169,VALID,23.7542,VALID,99,VALID,2.81367,
2017-01-28, 18:25:04,VALID,918.708,VALID,0,VALID,73.3678,VALID,422.673,VALID,23.6761,VALID,108,VALID,2.47344,
2017-01-28, 18:26:04,VALID,918.729,VALID,0,VALID,72.8417,VALID,425.145,VALID,23.6956,VALID,145,VALID,1.65742,
2017-01-28, 18:27:04,VALID,918.693,VALID,0,VALID,71.6067,VALID,428.798,VALID,23.7932,VALID,132,VALID,2.91953,
2017-01-28, 18:28:04,VALID,918.657,VALID,0,VALID,68.9462,VALID,433.31,VALID,23.7737,VALID,156,VALID,2.00352,
2017-01-28, 18:29:04,VALID,918.625,VALID,0,VALID,71.5686,VALID,435.137,VALID,23.7932,VALID,126,VALID,2.1207,
2017-01-28, 18:30:04,VALID,918.626,VALID,0,VALID,70.9283,VALID,442.228,VALID,23.7932,VALID,112,VALID,2.73359,
2017-01-28, 18:31:04,VALID,918.623,VALID,0,VALID,73.9243,VALID,448.352,VALID,23.7737,VALID,112,VALID,1.34766,
2017-01-28, 18:32:04,VALID,918.624,VALID,0,VALID,71.8202,VALID,459.741,VALID,23.8322,VALID,137,VALID,2.90313,
2017-01-28, 18:33:04,VALID,918.604,VALID,0,VALID,69.8839,VALID,470.485,VALID,23.6938,VALID,161,VALID,2.17266,
2017-01-28, 18:34:04,VALID,918.576,VALID,0,VALID,71.378,VALID,485.956,VALID,23.7346,VALID,186,VALID,2.10547,
2017-01-28, 18:35:04,VALID,918.55,VALID,0,VALID,71.8583,VALID,520.875,VALID,23.9298,VALID,171,VALID,0.811719,
2017-01-28, 18:36:04,VALID,918.534,VALID,0,VALID,70.3336,VALID,532.586,VALID,24.0451,VALID,162,VALID,0.180859,
2017-01-28, 18:37:04,VALID,918.503,VALID,0,VALID,69.2282,VALID,571.157,VALID,24.2208,VALID,181,VALID,2.06055,
2017-01-28, 18:38:04,VALID,918.473,VALID,0,VALID,70.4175,VALID,570.298,VALID,24.2617,VALID,167,VALID,1.87031,
2017-01-28, 18:39:04,VALID,918.467,VALID,0,VALID,70.7148,VALID,583.728,VALID,24.2208,VALID,130,VALID,2.01133,
2017-01-28, 18:40:04,VALID,918.428,VALID,0,VALID,70.5471,VALID,564.496,VALID,24.3983,VALID,138,VALID,1.20273,
2017-01-28, 18:41:04,VALID,918.386,VALID,0,VALID,69.0072,VALID,599.522,VALID,24.2989,VALID,144,VALID,1.12148,
2017-01-28, 18:42:04,VALID,918.399,VALID,0,VALID,68.9995,VALID,606.828,VALID,24.3611,VALID,146,VALID,0.813281,
2017-01-28, 18:43:04,VALID,918.374,VALID,0,VALID,70.7301,VALID,608.869,VALID,24.5545,VALID,160,VALID,1.22969,
2017-01-28, 18:44:04,VALID,918.352,VALID,0,VALID,68.1915,VALID,619.183,VALID,24.574,VALID,146,VALID,1.27422,
2017-01-28, 18:45:04,VALID,918.326,VALID,0,VALID,68.0924,VALID,659.904,VALID,24.6912,VALID,188,VALID,0.892187,
2017-01-28, 18:46:04,VALID,918.287,VALID,0,VALID,68.6107,VALID,700.624,VALID,24.9255,VALID,141,VALID,0.305469,
2017-01-28, 18:47:04,VALID,918.315,VALID,0,VALID,67.1242,VALID,704.492,VALID,25.1793,VALID,191,VALID,0.357812,
2017-01-28, 18:48:04,VALID,918.263,VALID,0,VALID,65.4089,VALID,718.566,VALID,25.355,VALID,182,VALID,1.94805,
2017-01-28, 18:49:04,VALID,918.277,VALID,0,VALID,63.4878,VALID,764.121,VALID,25.316,VALID,158,VALID,1.41172,
2017-01-28, 18:50:04,VALID,918.258,VALID,0,VALID,65.691,VALID,736.617,VALID,25.2965,VALID,138,VALID,0,
2017-01-28, 18:51:04,VALID,918.233,VALID,0,VALID,66.3161,VALID,726.302,VALID,25.5308,VALID,202,VALID,0.698047,
2017-01-28, 18:52:04,VALID,918.24,VALID,0,VALID,64.3493,VALID,681.607,VALID,25.7827,VALID,218,VALID,0,
2017-01-28, 18:53:04,VALID,918.228,VALID,0,VALID,64.6999,VALID,645.292,VALID,25.9214,VALID,175,VALID,1.76758,
2017-01-28, 18:54:04,VALID,918.173,VALID,0,VALID,65.5385,VALID,613.919,VALID,25.7827,VALID,145,VALID,2.00781,
2017-01-28, 18:55:04,VALID,918.2,VALID,0,VALID,62.6721,VALID,598.77,VALID,25.6655,VALID,100,VALID,1.00156,
2017-01-28, 18:56:04,VALID,918.134,VALID,0,VALID,63.5259,VALID,592.323,VALID,25.6851,VALID,25,VALID,0.454297,
2017-01-28, 18:57:04,VALID,918.126,VALID,0,VALID,63.6327,VALID,608.439,VALID,25.7827,VALID,196,VALID,0.839453,
2017-01-28, 18:58:04,VALID,918.064,VALID,0,VALID,65.0354,VALID,672.474,VALID,25.8042,VALID,72,VALID,2.88789,
2017-01-28, 18:59:04,VALID,918.083,VALID,0,VALID,63.8766,VALID,721.252,VALID,25.7827,VALID,150,VALID,2.88281,
2017-01-28, 19:00:04,VALID,918.034,VALID,0,VALID,62.6721,VALID,747.038,VALID,25.8608,VALID,72,VALID,2.53516,
2017-01-28, 19:01:04,VALID,918.04,VALID,0,VALID,58.6851,VALID,835.14,VALID,25.7437,VALID,97,VALID,2.07813,
2017-01-28, 19:02:04,VALID,918.027,VALID,0,VALID,61.4981,VALID,998.558,VALID,25.7046,VALID,137,VALID,0.633594,
2017-01-28, 19:03:05,VALID,917.997,VALID,0,VALID,61.0636,VALID,1258.14,VALID,25.9975,VALID,139,VALID,2.66133,
2017-01-28, 19:04:05,VALID,917.994,VALID,0,VALID,60.2402,VALID,1177.02,VALID,26.0366,VALID,148,VALID,1.64961,
2017-01-28, 19:05:05,VALID,917.95,VALID,0,VALID,60.8425,VALID,982.012,VALID,26.2124,VALID,260,VALID,0.875391,
2017-01-28, 19:06:05,VALID,917.952,VALID,0,VALID,59.4322,VALID,815.908,VALID,26.5249,VALID,218,VALID,0.739453,
2017-01-28, 19:07:05,VALID,917.93,VALID,0,VALID,61.8945,VALID,629.605,VALID,26.7398,VALID,49,VALID,1.59805,
2017-01-28, 19:08:05,VALID,917.919,VALID,0,VALID,57.938,VALID,623.374,VALID,26.5835,VALID,80,VALID,3.45352,
2017-01-28, 19:09:05,VALID,917.9,VALID,0,VALID,59.7523,VALID,613.596,VALID,26.308,VALID,45,VALID,2.38477,
2017-01-28, 19:10:05,VALID,917.894,VALID,0,VALID,59.7676,VALID,599.844,VALID,26.4272,VALID,23,VALID,0,
2017-01-28, 19:11:05,VALID,917.887,VALID,0,VALID,64.2349,VALID,628.316,VALID,26.6205,VALID,108,VALID,2.48438,
2017-01-28, 19:12:05,VALID,917.915,VALID,0,VALID,58.2963,VALID,702.88,VALID,26.564,VALID,58,VALID,1.3207,
2017-01-28, 19:13:05,VALID,917.878,VALID,0,VALID,64.8143,VALID,617.572,VALID,26.4858,VALID,48,VALID,3.8043,
2017-01-28, 19:14:05,VALID,917.917,VALID,0,VALID,62.1003,VALID,547.628,VALID,26.3686,VALID,19,VALID,2.01445,
2017-01-28, 19:15:05,VALID,917.918,VALID,0,VALID,64.6847,VALID,513.354,VALID,26.3686,VALID,21,VALID,2.15781,
2017-01-28, 19:16:05,VALID,917.942,VALID,0,VALID,63.2057,VALID,494.229,VALID,26.3511,VALID,32,VALID,1.1707,